"Pseudo-MPEC" for C8VF0D2

Created 2023 Feb 24 20:22:04 UT using Find_Orb

Click here for an explanation of pseudo-MPECs

 
 Astrometry: 
     C8VF0D2  C2022 11 013mBAstrometryBuKY9emBY?Y/Uj+j;G+J;f46?X(GkOjgKoG4:`mF51
     C8VF0D2  C2022 11 014sWicb3Xcr(%^p;#)wKN'oRcJRW0Fk)#5F?H%)AabYXW]aTb55W+F51
     C8VF0D2  C2022 11 01gunkM!Mq^*,_J/-*%Ic7R4bBJsMknv]v8#sQ.Z62i.?M3B6%H7W6F51
     C8VF0D2  C2023 01 24SS:M[,uWCKY5O,f]fVo/dh\R0s12dBqv=xW#t4yG5NSVe@fZO+f]F52
     C8VF0D2  C2023 01 24f9Hx#jUNfrMwO!eO2)fNn`;)iF+U]rn+JKu%Q'mZ\Yc\k\?104q%F52
     C8VF0D2*1C2023 01 30.42839513 54 31.450+46 31 41.59   ~1UCM 20.70GVNEOCPG96
     C8VF0D2 1C2023 01 30.43363813 54 31.500+46 31 36.73   ~1UCM 20.68GVNEOCPG96
     C8VF0D2 1C2023 01 30.43888413 54 31.648+46 31 31.08   ~1UCM 20.41GVNEOCPG96
     C8VF0D2 1C2023 01 30.44413013 54 31.712+46 31 26.04   ~1UCM 21.06GVNEOCPG96
     C8VF0D2  C2023 01 30.52964013 54 33.246+46 29 57.62   ~1UDb 21.08GVNEOCPI52
     C8VF0D2  C2023 01 30.53418813 54 33.354+46 29 52.76   ~1UDb 22.00GVNEOCPI52
     C8VF0D2  C2023 01 30.53753213 54 33.347+46 29 49.92   ~1UDb 21.04GVNEOCPI52
     C8VF0D2  C2023 01 30.54303113 54 33.469+46 29 43.84   ~1UDb 21.20GVNEOCPI52
     C8VF0D2 KC2023 01 31qaKbN1GS6w269dq,xS?bj1D/B.wn4HU9KKS6#,M?=m]iT[Bswf^uL01
     C8VF0D2 KC2023 01 31v[*MOv^W!/3TF7;M7ZD_q39RV2*Bq%r,/['P?9Q(_(qUc4H+ga8CL01
     C8VF0D2 KC2023 01 31Mv@x!l*el?FB^_MA@3I7gYV3Ha/Sx7Or5+dtp19SRV[svnv35U4kL01
     C8VF0D2 KC2023 01 31h\-CF:A]j9LOWFEh:;vlqW?G%;[nqI`9_m\_-#vQpINI%pcAF/l#L01
     C8VF0D2 KC2023 01 31N:\jOQ;RkT7^7wEnswevWmF]=c$dMJA!dXEmc`ET;7lR47ah?^FfL01
     C8VF0D2 KC2023 02 02.38829713 55 23.128+45 39 26.39   ~22A7 20.65GVNEOCPI52
     C8VF0D2 KC2023 02 02.39249413 55 23.142+45 39 22.57   ~22A7 20.99GVNEOCPI52
     C8VF0D2 KC2023 02 02.39669113 55 23.135+45 39 17.93   ~22A7 20.69GVNEOCPI52
     C8VF0D2 KC2023 02 02.40088513 55 23.178+45 39 13.43   ~22A7 20.64GVNEOCPI52
     C8VF0D2 KC2023 02 08.38897913 54 33.066+43 48 43.78   ~28A7 20.80GVNEOCPI52
     C8VF0D2 KC2023 02 08.39239513 54 32.954+43 48 40.25   ~28A7 21.10GVNEOCPI52
     C8VF0D2 KC2023 02 08.39581313 54 32.814+43 48 36.11   ~28A7 20.78GVNEOCPI52
     C8VF0D2 KC2023 02 08.39923413 54 32.742+43 48 32.76   ~28A7 20.74GVNEOCPI52
     C8VF0D2 KC2023 02 09.51975813 53 59.795+43 26 58.38   ~29D7 20.94GVNEOCPI52
     C8VF0D2 KC2023 02 09.52312113 53 59.611+43 26 54.49   ~29D7 20.71GVNEOCPI52
     C8VF0D2 KC2023 02 09.52689613 53 59.514+43 26 50.10   ~29D7 20.73GVNEOCPI52
     C8VF0D2 KC2023 02 09.53073113 53 59.341+43 26 45.56   ~29D7 20.72GVNEOCPI52
     C8VF0D2 1C2023 02 11^)*GaHteCPP!uwd\wrQ4d]H]/j#mjC+M'ShO'TM1^N-[mCX?Nl*1658
     C8VF0D2 1C2023 02 11n`HXP%%uI1HPd7ZEE-W)5d\;wiC,T8lJv(OK+`t5$eoJ0[mlSWNH658
     C8VF0D2 1C2023 02 11.P7R6ED\GnY)redacted;w*h^X$bwsfaP!TB.fJVt!Gkl$NnLaQJ658
     C8VF0D2 1C2023 02 11k@.$DJ!qkcGlqCU]H1X#Y8n%=BsC)KmOkUSiZ.`KKbqC_L-^80q+658
     C8VF0D2 1C2023 02 11%v!JE_um4@HA/()I-U1%RKQ2Xi%i`0H72Ia1.\$vV'q?c!hq0Tvb658
     C8VF0D2 KC2023 02 12.14858213 52 17.53 +42 34 46.7    ~2C6M 19.1 GXNEOCPC95
     C8VF0D2 KC2023 02 12.20737813 52 14.42 +42 33 34.9    ~2C6M 19.7 GXNEOCPC95
     C8VF0D2 KC2023 02 14%'N7KS1=()Rc;:yskUTbNc=5MKei*FAqK]i*_L6#g+;v2o^`3WO(W62
     C8VF0D2 KC2023 02 14AsfBk.90P_nj2+mSjIHf5Jv+-b0j])V%tdsjNI*wmp\`#LdL8yDOW62
     C8VF0D2 KC2023 02 14)C7kS')6].d[T*+8[R.=m2CW8[0\R:euQ1(Xno\K^6VCO7u7/hIRW62
     C8VF0D2 1C2023 02 15yah0w@J=;!(w3vo(xQT6AdYJU/bdQeqQM_;$%?At@Iq-EfiDqC48246
     C8VF0D2 1C2023 02 15aHc=WK[b6Rm=7.BMc6GgaT2'D0xAE7]mT$%5@;B43YBUPJr@q_(L246
     C8VF0D2 KC2023 02 16/$\.y[y\(Sj`X'MH;`[7o1aBR3[49-Cqj+p%*-.]QnoWOCYj];(-W62
     C8VF0D2 KC2023 02 16CO2V0FIrD@OkA4ROK)xu;MNrUCTbJwk6.]WN'Rj0C1xO;$2myMtqW62
     C8VF0D2 KC2023 02 16lyiIxZ:,6w=dXo.Bl@Au5y.(R5IkIOkIrn!-.aw+%=NJ`uD[pYZ$W62
     C8VF0D2 KC2023 02 16;2:r5+uvD7kxyau_@7IbD`w:@1s5w3-fr(+o'v:[tmBo,=-/@I%dU94
     C8VF0D2 KC2023 02 16cWX)hQs@,7c7,D3%-m!Wrc8AhV*E5hh@a._Anv^`\(s\a[)cl][0U94
     C8VF0D2 KC2023 02 17FNQi*[hs#V:dS,gODMeMFG4[*QMhg74;BWyXFM[VgFOclick@,IPA77
     C8VF0D2 KC2023 02 17i4Wi5F%?Q,-Dv3f-gD-:Zd[mUf/$pRlhereNu[N%-bx+81KERJSlA77
     C8VF0D2 KC2023 02 17*qMdd(*M`Y,(TgVUh6*4!vyuRP(x4yLR=.\Do]#!eXCvg12]oF8kA77
     C8VF0D2 KC2023 02 17yfQIIP7HVD@dd3=Bi]T2YuwE2FkJ7jBWvEZ])\'#aAh%=WbqCultB74
     C8VF0D2 KC2023 02 17@$@e(1/KB_p#e-for`GhcP^j/!KMx@r@x8_[#H,E.VHs.u`Kwj0AB74
     C8VF0D2 KC2023 02 17y2v$_t$YFx2^]m;,S`:c/g'qbhC92S42?06X^ol*m$B+K]7$D+g-B74
     C8VF0D2 KC2023 02 20LI$5kG(#Tqis[Z,@Ox$BVG'[*_(#5P)n?t;!RprAC.U)(*[,'7S.204
     C8VF0D2 KC2023 02 20r8'1t*ldZuXSJMUVw'Qu5-$=7`JwW'JI.5D8'.MW@'m57k=hf,uj204
     C8VF0D2 3C2023 02 24$3*(+\_2,/tu-g#;n4[No(d,s[t9Ap^E]hMB$g/0v)`]pcxw3mFoT14
     C8VF0D2 3C2023 02 24WRClL\3vtYY=`VAMe,#nl`?/8]`%*,ua^-dAaOTtl:PghosE?,7(T14
     C8VF0D2 3C2023 02 24Dtexplanationh$YNytf=(Qq#lFW@lKK49@a9^'EucCJ,G)ZF#G=T14

Station data:
(204) Schiaparelli Observatory  (N45.867930 E8.770800)  Italy.  Observer L.
   Buzzi. 0.60-m f/4.64 Newtonian + CCD0.84-m f/3.5 reflector + CCD.
(246) Klet Observatory-KLENOT  (N48.863991 E14.284760)  Czech Republic.
   Observers M. Tichy, J. Ticha. Measurer M. Tichy. 1.06-m f/2.7 reflector +
   2048x2048 CCD.
(658) Dominion Astrophysical Observatory  (N48.519984 W123.417000)
   Canada/BritColumbia.  Observer D. D. Balam. Measurers D. D. Balam, D. W.
   E. Green, C. E. Spratt. 1.82-m reflector + CCD.
(A77) Observatoire Chante-Perdrix, Dauban  (N43.999790 E5.646930)  France.
   Observers F. Kugel, J.-G. Bosch. 0.4-m f/2.8 reflector + CCD0.2-m f/5.7
   reflector + CCD0.2-m f/5.6 reflector + CCD.
(B74) Santa Maria de Montmagastrell  (N41.720158 E1.105360)  Spain.  Observer
   J. M. Bosch. 0.4-m f/1.2 Schmidt-Cassegrain + CCD.
(C95) SATINO Remote Observatory, Haute Provence  (N43.932040 E5.712390)
   France.  Observer J. Jahn. 0.60-m f/3.2 Newtonian reflector + CCD.
(F51) Pan-STARRS 1, Haleakala  (N20.707234 W156.255910)  US/Hawaii.
   Observers J. Bulger, T. Lowe, A. Schultz, M. Willman. Measurers K.
   Chambers, S. Chastel, T. de Boer, L. Denneau, J. Fairlamb, H. Flewelling,
   M. Huber, C.-C. Lin, E. Magnier, Y. Ramanjooloo, R. Wainscoat, R. Weryk.
   1.8-m Ritchey-Chrétien + CCD.
(F52) Pan-STARRS 2, Haleakala  (N20.707382 W156.255910)  US/Hawaii.
   Observers J. Bulger, T. Dukes, T. Lowe, A. Schultz, M. Willman. Measurers
   K. Chambers, S. Chastel, T. de Boer, L. Denneau, J. Fairlamb, H.
   Flewelling, M. Huber, C.-C. Lin, E. Magnier, Y. Ramanjooloo, R. Wainscoat,
   R. Weryk. 1.8-m Ritchey-Chrétien + CCD.
(G96) Mt. Lemmon Survey  (N32.442751 W110.788720)  US/Arizona.  Observers T.
   A. Pruyne, B. M. Africano, E. J. Christensen, G. A. Farneth, D. C. Fuls,
   A. R. Gibbs, A. D. Grauer, H. Gröller, J. A. Johnson, R. A. Kowalski, S.
   M. Larson, G. J. Leonard, D. Rankin, R. L. Seaman, F. C. Shelly, K. W.
   Wierzchoś. 1.5-m reflector + 10K CCD.
(I52) Steward Observatory, Mt. Lemmon Station  (N32.442544 W110.788920)
   US/Arizona.  Observers T. A. Pruyne, B. M. Africano, E. J. Christensen, G.
   A. Farneth, D. C. Fuls, A. R. Gibbs, A. D. Grauer, H. Gröller, J. A.
   Johnson, R. A. Kowalski, S. M. Larson, G. J. Leonard, D. Rankin, R. L.
   Seaman, F. C. Shelly, K. W. Wierzchoś. 1.0-m reflector + CCD.
(L01) Višnjan Observatory, Tičan  (N45.290897 E13.749300)  Croatia.
   Observers K. Korlević, D. Pujagic, V. Dobos. Measurers D. Pujagic, K.
   Korlević. 1.0-m f/2.9 reflector + CCD.
(T14) Mauna Kea-UH/Tholen NEO Follow-Up (CFHT)  (N19.825252 W155.468876)
   US/Hawaii. 3.6-m Canada-France-Hawaii Telescope.
(U94) iTelescope Observatory, Beryl Junction (Sato)  (N37.737780 W113.697500)
    US/Utah.
(W62) Comet Hunter Observatory2, New Ringgold  (N40.745185 W75.862390)
   US/Pennsylvania.  Observer J. Maikner. 0.30-m f/3.8 Riccardi-Honders + CCD.

Orbital elements:  C8VF0D2
   Perihelion 2023 Jan 18.76009 +/- 0.000165 TT = 18:14:31 (JD 2459963.26009)
Epoch 2023 Feb 24.0 TT = JDT 2459999.5   Earth MOID: 0.4509   Ma: 0.0205
M   6.95957759 +/- 0.00018          (J2000 ecliptic)             AutoNEOCP
n   0.19204178 +/- 5.68e-6          Peri.  108.81315 +/- 0.00022
a   2.97535571 +/- 5.86e-5          Node    21.14823 +/- 0.00017
e   0.5717905 +/- 7.56e-6           Incl.   22.01079 +/- 0.00009
P   5.13                   H 20.12  G  0.15   U  4.6
q 1.27407546 +/- 2.63e-6    Q 4.67663597 +/- 0.000115
From 58 observations 2022 Nov. 1-2023 Feb. 24; mean residual 0".25
Residuals in arcseconds: 
221101 F51  .17-  .05-    230202 I52  .13-  .09+    230215 246  .73+  .48+    
221101 F51  .02+  .19+    230202 I52  .20+  .10-    230215 246  .31+  .16+    
221101 F51  .18+  .17-    230208 I52  .12-  .23-    230216 W62  .19-  .11-    
230124 F52  .04+  .03-    230208 I52  .16-  .02+    230216 W62  .26+  .11+    
230124 F52  .01-  .13+    230208 I52  .49-  .34-    230216 W62  .28+  .35-    
230130 G96  .18+  .25-    230208 I52  .08-  .10+    230216 U94  .35-  .25+    
230130 G96  .33-  .18+    230209 I52  .20+  .05-    230216 U94  .12-  .13-    
230130 G96  .18+  .16-    230209 I52  .33-  .01+    230217 A77  .32-  .22-    
230130 G96  .16-  .11+    230209 I52  .27+  .06+    230217 A77  .02-  .23-    
230130 I52  .27+  .20-    230209 I52  .06+  .04+    230217 A77  .37-  .49-    
230130 I52  .60+  .29-    230211 658  .26-  .07+    230217 B74  .10-  .38+    
230130 I52  .06-  .39+    230211 658  .10+  .26-    230217 B74  .00   .23+    
230130 I52  .25+  .09+    230211 658  .02+  .19-    230217 B74  .18+  .08-    
230131 L01  .25+  .34+    230211 658  .12+  .22-    230220 204  .08+  .08+    
230131 L01  .12+  .36+    230211 658  .14+  .07-    230220 204  .35+  .00     
230131 L01  .64-  .22-    230212 C95  .50-  .59-    230224 T14  .01+  .02+    
230131 L01  .02+  .61+    230212 C95  .01-  .74-    230224 T14  .02+  .04+    
230131 L01  .14-  .05+    230214 W62  .01+  .12-    230224 T14  .04-  .03-    
230202 I52  .05+  .07-    230214 W62  .10-  .08-    
230202 I52  .06+  .42+    230214 W62  .33-  .08-    

Ephemerides (geocentric):
